When you browse on this site, cookies collect data to enhance your experience and personalize the content and advertising you see.
Visit our Privacy Policy to learn more. By continuing to use the site, you agree to this use of cookies and data.
  • In Switzerland
  • List of Countries
  • For 7 days
  • Water Temperature
  • Satellite Maps
  • Weather Map
  • Weather Widgets
  • user-avatar
    Login

    Hourly Weather Franceville

    Today, 24 July, Wednesday

    Time Temperature Precipitation Wind Pressure Humidity
    00:00 +26°C° 0 mm 0 mps 731 mmHg 64%
    01:00 +25°C° 0 mm 0 mps 731 mmHg 66%
    02:00 +26°C° 0 mm 1 mps 731 mmHg 69%
    03:00 +26°C° 0 mm 1 mps 730 mmHg 72%
    04:00 +25°C° 0 mm 1 mps 730 mmHg 75%
    05:00 +25°C° 0 mm 1 mps 731 mmHg 76%
    06:00 +25°C° 0 mm 1 mps 731 mmHg 76%
    07:00 +23°C° 0 mm 0 mps 731 mmHg 77%
    08:00 +27°C° 0 mm 1 mps 732 mmHg 68%
    09:00 +30°C° 0 mm 1 mps 732 mmHg 58%
    10:00 +33°C° 0 mm 1 mps 732 mmHg 49%
    11:00 +34°C° 0 mm 1 mps 732 mmHg 44%
    12:00 +36°C° 0 mm 1 mps 731 mmHg 39%
    13:00 +39°C° 0 mm 1 mps 731 mmHg 34%
    14:00 +39°C° 0 mm 1 mps 730 mmHg 33%
    15:00 +37°C° 0 mm 1 mps 729 mmHg 33%
    16:00 +37°C° 0 mm 1 mps 728 mmHg 32%
    17:00 +35°C° 0 mm 1 mps 729 mmHg 40%
    18:00 +33°C° 0 mm 1 mps 729 mmHg 47%
    19:00 +31°C° 0 mm 1 mps 729 mmHg 55%
    20:00 +30°C° 0.1 mm 1 mps 730 mmHg 59%
    21:00 +29°C° 0.1 mm 1 mps 730 mmHg 64%
    22:00 +28°C° 0.1 mm 1 mps 731 mmHg 69%
    23:00 +28°C° 0.8 mm 1 mps 731 mmHg 72%

    Tomorrow, 25 July, Thursday

    Time Temperature Precipitation Wind Pressure Humidity
    00:00 +27°C° 0.8 mm 2 mps 731 mmHg 74%
    01:00 +27°C° 0.8 mm 2 mps 731 mmHg 77%
    02:00 +26°C° 0 mm 2 mps 731 mmHg 79%
    03:00 +25°C° 0 mm 1 mps 731 mmHg 82%
    04:00 +25°C° 0 mm 1 mps 731 mmHg 84%
    05:00 +25°C° 0 mm 1 mps 732 mmHg 84%
    06:00 +25°C° 0 mm 1 mps 732 mmHg 83%
    07:00 +24°C° 0 mm 1 mps 733 mmHg 83%
    08:00 +26°C° 0 mm 1 mps 733 mmHg 76%
    09:00 +27°C° 0 mm 2 mps 733 mmHg 69%
    10:00 +29°C° 0 mm 2 mps 734 mmHg 62%
    11:00 +30°C° 0 mm 2 mps 733 mmHg 57%
    12:00 +32°C° 0 mm 2 mps 732 mmHg 51%
    13:00 +34°C° 0 mm 2 mps 732 mmHg 46%
    14:00 +34°C° 0 mm 1 mps 731 mmHg 45%
    15:00 +34°C° 0 mm 1 mps 730 mmHg 43%
    16:00 +34°C° 0 mm 1 mps 730 mmHg 41%
    17:00 +33°C° 0 mm 1 mps 730 mmHg 47%
    18:00 +31°C° 0 mm 1 mps 730 mmHg 53%
    19:00 +30°C° 0 mm 1 mps 731 mmHg 59%
    20:00 +29°C° 0 mm 1 mps 731 mmHg 63%
    21:00 +27°C° 0 mm 1 mps 732 mmHg 66%
    22:00 +26°C° 0 mm 2 mps 732 mmHg 70%
    23:00 +26°C° 0 mm 1 mps 732 mmHg 72%

    Day after tomorrow, 26 July, Friday

    Time Temperature Precipitation Wind Pressure Humidity
    00:00 +25°C° 0 mm 1 mps 732 mmHg 73%
    01:00 +24°C° 0 mm 1 mps 732 mmHg 75%
    02:00 +24°C° 0 mm 1 mps 732 mmHg 77%
    03:00 +24°C° 0 mm 1 mps 732 mmHg 79%
    04:00 +21°C° 0 mm 0 mps 731 mmHg 80%
    05:00 +21°C° 0 mm 0 mps 732 mmHg 80%
    06:00 +21°C° 0 mm 0 mps 732 mmHg 80%
    07:00 +23°C° 0 mm 1 mps 733 mmHg 79%
    08:00 +26°C° 0 mm 1 mps 733 mmHg 70%
    09:00 +28°C° 0 mm 1 mps 733 mmHg 60%
    10:00 +30°C° 0 mm 2 mps 734 mmHg 51%
    11:00 +32°C° 0 mm 2 mps 733 mmHg 45%
    12:00 +35°C° 0 mm 2 mps 732 mmHg 39%
    13:00 +36°C° 0 mm 2 mps 731 mmHg 34%
    14:00 +36°C° 0 mm 2 mps 731 mmHg 33%
    15:00 +36°C° 0 mm 2 mps 730 mmHg 32%
    16:00 +36°C° 0 mm 2 mps 729 mmHg 32%
    17:00 +34°C° 0 mm 2 mps 729 mmHg 37%
    18:00 +31°C° 0 mm 2 mps 730 mmHg 43%
    19:00 +29°C° 0 mm 1 mps 730 mmHg 48%
    20:00 +29°C° 0 mm 1 mps 731 mmHg 51%
    21:00 +28°C° 0 mm 1 mps 731 mmHg 55%
    22:00 +27°C° 0 mm 1 mps 732 mmHg 58%
    23:00 +26°C° 0 mm 1 mps 732 mmHg 59%

    27 July, Saturday

    Time Temperature Precipitation Wind Pressure Humidity
    00:00 +26°C° 0 mm 1 mps 732 mmHg 60%
    01:00 +25°C° 0 mm 1 mps 732 mmHg 62%
    02:00 +24°C° 0 mm 1 mps 732 mmHg 65%
    03:00 +24°C° 0 mm 1 mps 732 mmHg 68%
    04:00 +23°C° 0 mm 1 mps 732 mmHg 72%
    05:00 +23°C° 0 mm 1 mps 732 mmHg 73%
    06:00 +23°C° 0 mm 1 mps 732 mmHg 74%
    07:00 +23°C° 0 mm 1 mps 733 mmHg 75%
    08:00 +25°C° 0 mm 1 mps 733 mmHg 65%
    09:00 +27°C° 0 mm 2 mps 733 mmHg 56%
    10:00 +29°C° 0 mm 2 mps 734 mmHg 47%
    11:00 +31°C° 0 mm 2 mps 733 mmHg 40%
    12:00 +34°C° 0 mm 2 mps 732 mmHg 34%
    13:00 +35°C° 0 mm 2 mps 731 mmHg 28%
    14:00 +36°C° 0 mm 2 mps 731 mmHg 28%
    15:00 +36°C° 0 mm 2 mps 730 mmHg 27%
    16:00 +36°C° 0 mm 2 mps 730 mmHg 27%
    17:00 +34°C° 0 mm 2 mps 730 mmHg 32%
    18:00 +31°C° 0 mm 1 mps 730 mmHg 38%
    19:00 +29°C° 0 mm 1 mps 730 mmHg 43%
    20:00 +28°C° 0 mm 1 mps 731 mmHg 46%
    21:00 +27°C° 0 mm 1 mps 732 mmHg 48%
    22:00 +26°C° 0 mm 1 mps 732 mmHg 51%
    23:00 +26°C° 0 mm 1 mps 732 mmHg 53%

    28 July, Sunday

    Time Temperature Precipitation Wind Pressure Humidity
    00:00 +25°C° 0 mm 1 mps 732 mmHg 55%
    01:00 +24°C° 0 mm 1 mps 732 mmHg 58%
    02:00 +24°C° 0 mm 1 mps 732 mmHg 59%
    03:00 +24°C° 0 mm 1 mps 732 mmHg 61%
    04:00 +24°C° 0 mm 1 mps 732 mmHg 62%
    05:00 +23°C° 0 mm 1 mps 732 mmHg 65%
    06:00 +23°C° 0 mm 1 mps 732 mmHg 68%
    07:00 +23°C° 0 mm 1 mps 733 mmHg 71%
    08:00 +25°C° 0 mm 1 mps 733 mmHg 64%
    09:00 +27°C° 0 mm 1 mps 733 mmHg 58%
    10:00 +29°C° 0 mm 1 mps 734 mmHg 51%
    11:00 +31°C° 0 mm 1 mps 733 mmHg 45%
    12:00 +33°C° 0 mm 1 mps 732 mmHg 39%
    13:00 +36°C° 0 mm 2 mps 732 mmHg 32%
    14:00 +36°C° 0 mm 2 mps 731 mmHg 31%
    15:00 +36°C° 0 mm 2 mps 731 mmHg 30%
    16:00 +36°C° 0 mm 2 mps 730 mmHg 29%
    17:00 +33°C° 0 mm 1 mps 730 mmHg 34%
    18:00 +31°C° 0 mm 1 mps 731 mmHg 40%
    19:00 +29°C° 0 mm 1 mps 731 mmHg 45%
    20:00 +28°C° 0 mm 1 mps 731 mmHg 48%
    21:00 +27°C° 0 mm 1 mps 732 mmHg 50%
    22:00 +26°C° 0 mm 1 mps 732 mmHg 52%
    23:00 +25°C° 0 mm 1 mps 732 mmHg 54%

    29 July, Monday

    Time Temperature Precipitation Wind Pressure Humidity
    00:00 +25°C° 0 mm 1 mps 732 mmHg 56%
    01:00 +24°C° 0 mm 1 mps 732 mmHg 58%
    02:00 +23°C° 0 mm 1 mps 732 mmHg 63%
    03:00 +23°C° 0 mm 1 mps 732 mmHg 67%
    04:00 +22°C° 0 mm 1 mps 732 mmHg 72%
    05:00 +22°C° 0 mm 1 mps 733 mmHg 73%
    06:00 +22°C° 0 mm 1 mps 733 mmHg 75%
    07:00 +22°C° 0 mm 1 mps 733 mmHg 76%
    08:00 +24°C° 0 mm 1 mps 733 mmHg 67%
    09:00 +26°C° 0 mm 1 mps 734 mmHg 59%
    10:00 +29°C° 0 mm 1 mps 734 mmHg 50%
    11:00 +30°C° 0 mm 1 mps 733 mmHg 45%
    12:00 +32°C° 0 mm 1 mps 733 mmHg 39%
    13:00 +35°C° 0 mm 2 mps 732 mmHg 34%
    14:00 +34°C° 0 mm 1 mps 731 mmHg 33%
    15:00 +35°C° 0 mm 1 mps 731 mmHg 32%
    16:00 +35°C° 0 mm 1 mps 730 mmHg 31%
    17:00 +33°C° 0 mm 1 mps 730 mmHg 37%
    18:00 +31°C° 0 mm 1 mps 730 mmHg 43%
    19:00 +29°C° 0 mm 1 mps 730 mmHg 49%
    20:00 +28°C° 0 mm 1 mps 731 mmHg 53%
    21:00 +27°C° 0 mm 1 mps 732 mmHg 56%
    22:00 +26°C° 0 mm 1 mps 732 mmHg 60%
    23:00 +26°C° 0 mm 1 mps 732 mmHg 62%
    Show more